Regional Weather Roundup
Issued by NWS

Home | Current Version | Previous Version | Graphics & Text | Print | Product List | Glossary On
Versions: 1 2 3 4 5 6 7 8 9 10 11 12 13 14 15 16 17 18 19 20 21 22 23 24 25 26 27 28 29 30 31 32 33 34 35 36 37 38 39 40 41 42 43 44 45 46 47 48 49 50
000
ASUS45 KTFX 170610
RWRMT
MONTANA REGIONAL WEATHER ROUNDUP
NATIONAL WEATHER SERVICE GREAT FALLS MT
1100 PM MST MON JAN 16 2017

NOTE: "FAIR" INDICATES FEW OR NO CLOUDS BELOW 12000 FEET WITH NO
SIGNIFICANT WEATHER AND/OR OBSTRUCTIONS TO VISIBILITY.

MTZ001>007-043-170700-
WEST OF THE DIVIDE

CITY           SKY/WX    TMP DP  RH WIND       PRES   REMARKS
KALISPELL      FOG       11   9  92 CALM      30.20F VSB 1/4
MISSOULA       PTCLDY     1  -1  91 NW3       30.25R
BUTTE          CLOUDY     1  -3  83 CALM      30.12S
MULLAN PASS    MOCLDY    26  14  60 S8        30.03F WCI  18
ANACONDA         N/A     10   3  72 W3        30.12S
DEER LODGE       N/A      5   0  78 W3        30.16F
EUREKA           N/A     14   7  73 CALM      30.16F
HAMILTON         N/A      3   0  85 E3        30.20R
PLAINS           N/A      0  -8  68 CALM      30.23F
RONAN            N/A     -2  -8  75 MISG      30.21F VSB 0
$$

MTZ008-052>055-170700-
SOUTHWEST MONTANA

CITY           SKY/WX    TMP DP  RH WIND       PRES   REMARKS
BOZEMAN        CLOUDY     2  -2  83 S7        30.13S WCI -11
DILLON         CLOUDY    20   2  45 SW7       30.12S WCI  11
W YELLOWSTONE  CLOUDY   -11 -17  77 S3        30.19S
ENNIS          CLEAR     19  10  68 S17G23    30.16F WCI   4
TWIN BRIDGES     N/A      8  -4  58 E6        30.09F WCI  -2
$$

MTZ009-010-012-014-046-048-049-054-170700-
EAST SLOPES AND CENTRAL MONTANA

CITY           SKY/WX    TMP DP  RH WIND       PRES   REMARKS
CUT BANK         N/A     38  18  44 W32G39    29.80S WCI  25
GREAT FALLS    CLOUDY    32  19  58 S22       29.90F WCI  19
MALMSTROM AFB  CLOUDY    33  22  64 SW28      29.90F WCI  19
HELENA         CLOUDY     3  -2  79 NE3       30.13F
AUGUSTA          N/A     39  14  35 W23G30    29.89F WCI  28
BOWMANS CRNR     N/A     26  15  62 S26       29.91S WCI  10
CHOTEAU          N/A     39  18  41 S10       29.87F
CONRAD           N/A     25  19  77 S6        29.87F WCI  18
FAIRFIELD        N/A     31  17  56 S25G31    29.88S WCI  17
POWER            N/A     31  19  61 SW17      29.88F WCI  19
RAYNESFORD       N/A     41  17  38 SW24      29.89F
ULM              N/A     32  20  63 MISG      29.93F
$$

MTZ011-013-016-021-045-047-050-051-170700-
NORTH CENTRAL MONTANA

CITY           SKY/WX    TMP DP  RH WIND       PRES   REMARKS
HAVRE          CLOUDY    25  17  72 SW22      29.84F WCI  10
LEWISTOWN      CLOUDY    21  10  62 SE8       29.92S WCI  11
N BAR RANCH      N/A     28  10  47 W5G12     29.93S
CHINOOK          N/A     10   7  85 CALM      29.87F
DENTON           N/A     22  15  73 SE18      29.86F WCI   8
FORT BENTON      N/A     34  19  55 MISG      29.89F
GEYSER           N/A     35  19  51 W17       29.88F WCI  25
GRASS RANGE      N/A     33  14  46 W16       29.88F WCI  22
JUDITH GAP       N/A     27  13  55 S9        29.92F WCI  18
ROY              N/A     35  17  47 MISG      29.88F
STANFORD         N/A     31  17  57 CALM      29.90F
WINIFRED         N/A     38  17  42 SW12      29.88F WCI  30
$$

MTZ017>020-022>027-061-062-170700-
NORTHEAST MONTANA

CITY           SKY/WX    TMP DP  RH WIND       PRES   REMARKS
GLASGOW        CLOUDY     8   5  87 E12       29.93F WCI  -7
JORDAN           N/A      6   2  83 W3        29.93F
SIDNEY         CLOUDY    10   5  80 S9        30.02F WCI  -3
WOLF POINT     CLOUDY     4  -1  80 N5        29.98F
PLENTYWOOD       N/A      9   7  92 SE10      29.94F WCI  -6
POPLAR           N/A     10   7  85 CALM      29.99F
SCOBEY           N/A     17   3  54 SE2       29.88F
$$

MTZ028>42-056>058-170700-
SOUTHCENTRAL AND SOUTHEAST MONTANA

CITY           SKY/WX    TMP DP  RH WIND       PRES   REMARKS
BAKER          CLOUDY     2  -3  80 CALM      30.03F
BILLINGS       CLOUDY    23   7  50 SW25G37   30.00S WCI   7
LIVINGSTON     CLOUDY    32  13  45 W28G37    30.04R WCI  18
MILES CITY     CLOUDY    11   4  73 S13       30.02F WCI  -4
BIG TIMBER     CLEAR     32  12  43 W29G37    29.99F WCI  18
EKALAKA          N/A     21   7  55 SE2       29.99F
FORSYTH          N/A     10   7  85 SE3       30.01F
HARLOWTON        N/A     32  13  47 W31G38    29.94F WCI  17
LAUREL           N/A     19   5  54 S16       29.98F WCI   4
$$

REGIONAL REPORTS...DAKOTAS

CITY           SKY/WX    TMP DP  RH WIND       PRES   REMARKS
WILLISTON      CLOUDY     9   6  88 S5        30.01F
MINOT          CLOUDY    18  13  80 SW16      29.99F WCI   3
DICKINSON      CLOUDY    12   7  80 SW8       30.00F WCI   0
BEACH            N/A     14   7  73 S7        30.03F WCI   4
CROSBY           N/A     12   9  85 S18       29.98F WCI  -5
TIOGA            N/A     14  14 100 SW13      29.99F WCI   0
WATFORD CITY     N/A      7   5  92 CALM      30.02F
BISMARCK       CLOUDY    10   6  84 W8        30.06F WCI  -2
GRAND FORKS    CLOUDY     2  -2  83 SW5       30.01F
FARGO          CLOUDY     5   2  87 W8        30.04R WCI  -8
BUFFALO SD       N/A     17   8  67 W6        29.97F WCI   9
RAPID CITY     CLOUDY    18  10  71 CALM      30.06S
$$

REGIONAL REPORTS...WYOMING/IDAHO/WASHINGTON

CITY           SKY/WX    TMP DP  RH WIND       PRES   REMARKS
GILLETTE         N/A     14   6  70 N3        30.05S
SHERIDAN       CLOUDY    12   4  70 CALM      30.02F
BUFFALO WY     CLOUDY    24   4  42 CALM      30.02S
CODY           CLOUDY     8   1  73 VRB3      30.02
YELLOWSTONE LA   N/A     -7 -10  87 CALM      30.17S
IDAHO FALLS    CLOUDY    -5  -8  87 N8        30.30S WCI -20
SALMON         CLOUDY   -15 -15 100 CALM      30.42F
BOISE          CLEAR      3   0  87 W3        30.42R FOG
SPOKANE        PTCLDY    10   7  87 W5        30.17R FOG
$$

REGIONAL REPORTS...ALBERTA

CITY           SKY/WX    TMP DP  RH WIND       PRES   REMARKS
EDMONTON       CLEAR     39  25  56 SW12      29.36F WCI  32
CALGARY        PTCLDY    45  27  49 SW7       29.59F
LETHBRIDGE     CLEAR     36  27  69 SW22G33   29.73S WCI  24
MEDICINE HAT   CLEAR     37  25  60 SW17G23   29.70F WCI  28
WATERTON GATE    N/A     39  16  38 SW9G17      N/A
CARDSTON         N/A     45  21  39 SW17G25     N/A
MILK RIVER       N/A     32  23  69 SW8         N/A  WCI  25
ONEFOUR          N/A     14  10  85 E12         N/A  WCI   0
$$

REGIONAL REPORTS...SASKATCHEWAN

CITY           SKY/WX    TMP DP  RH WIND       PRES   REMARKS
SWIFT CURRENT  CLEAR     27  19  74 SW23      29.71F WCI  12
REGINA         PTCLDY    16  10  79 SE9       29.84F WCI   4
SASKATOON      CLEAR     25  16  68 S16       29.68F WCI  12
CYPRESS HILLS    N/A     25  14  63 W5          N/A
VAL MARIE        N/A      7   3  85 SW6         N/A  WCI  -3
ROCKGLEN         N/A     23  14  68 SW17        N/A  WCI   9
ASSINIBOIA       N/A     28  21  74 S13         N/A  WCI  18
$$



USA.gov is the U.S. government's official web portal to all federal, state and local government web resources and services.